Location: Newark
(42.7133°N, 87.7910°W)
Time: 13:50:50
(UTC+00:00)

A-11 Canister half - Pass Details

Date: 30 September 2019
Orbit: 1527 x 1682 km, 47.3° (Epoch: 20 October)

Event Time Altitude Azimuth Distance (km) Brightness Sun altitude
Exits shadow 08:51:22 61° 283° (WNW) 1,721 8.9 -31.9°
Maximum altitude 08:53:12 76° 345° (NNW) 1,595 8.9 -31.6°
Drops below altitude 10° 09:02:49 10° 71° (ENE) 3,791 12.0 -30.0°
Sets 09:05:58 0° 73° (ENE) 4,798 12.8 -29.5°
